Location: Unspecified
(0.0000°N, 0.0000°E)
Time: 13:16:15
(UTC+01:00)

Centaur D-1AR AC-41 - Visible Passes

Search period start: 25 January 2015 00:00
Search period end: 04 February 2015 00:00
Orbit: 611 x 36231 km, 21.1° (Epoch: 24 January)

Date Brightness Start Highest point End Pass type
(mag) Time Alt. Az. Time Alt. Az. Time Alt. Az.
25 Jan 6.1 11:46:06 10° NW 11:54:21 53° NNE 21:48:00 16° E visible
27 Jan 6.0 18:14:42 10° W 04:16:38 14° NE 04:17:10 10° NE visible
28 Jan 7.8 15:32:21 10° W 01:21:30 70° SW 01:21:30 70° SW visible
29 Jan 6.8 12:59:21 10° WNW 13:12:29 81° NNE 22:56:51 45° ESE visible
30 Jan 5.7 10:29:37 10° NNW 10:35:31 34° NE 20:25:09 10° E visible
31 Jan 5.2 19:51:35 10° WSW 05:27:53 17° N 05:29:24 10° NNE visible
01 Feb 8.2 16:50:40 10° W 02:30:46 40° WSW 02:30:46 40° WSW visible
02 Feb 7.7 14:13:39 10° WNW 00:01:48 76° SSE 00:06:14 75° SE visible
03 Feb 6.2 11:42:19 10° NW 11:51:19 65° NNE 21:41:44 26° E visible
